AAL1560 KJFK-KMIA

Flight info

Callsign AAL1560
Flight time N/A
Altitude 38000
Route WAVEY EMJAY Q167 KALDA Q101 SKARP Y313 HOAGG BNFSH3
Aircraft B38M/M-SDE1FGHILORVWXY/HB1

Departure

Time 2026-05-09 18:49
Airport John F. Kennedy International Airport (KJFK)

Arrival

Time N/A
Airport Miami International Airport (KMIA)
Time Latitude Longitude Altitude Speed Heading
2026-05-09 18:20 40.64665 -73.79450 18 ft 0 kts 28°
2026-05-09 18:33 40.64658 -73.79455 19 ft 4 kts 19°
2026-05-09 18:33 40.64634 -73.79452 20 ft 3 kts 338°
2026-05-09 18:34 40.64616 -73.79440 19 ft 4 kts 305°
2026-05-09 18:34 40.64613 -73.79414 20 ft 4 kts 265°
2026-05-09 18:34 40.64615 -73.79394 21 ft 0 kts 265°
2026-05-09 18:37 40.64614 -73.79410 18 ft 2 kts 265°
2026-05-09 18:37 40.64613 -73.79419 18 ft 1 kts 265°
2026-05-09 18:38 40.64613 -73.79421 18 ft 0 kts 265°
2026-05-09 18:40 40.64933 -73.79703 18 ft 16 kts
2026-05-09 18:40 40.65035 -73.79678 18 ft 15 kts 32°
2026-05-09 18:40 40.65100 -73.79558 18 ft 17 kts 60°
2026-05-09 18:41 40.65160 -73.79419 18 ft 17 kts 60°
2026-05-09 18:41 40.65210 -73.79279 18 ft 17 kts 80°
2026-05-09 18:41 40.65188 -73.79135 18 ft 16 kts 107°
2026-05-09 18:41 40.65155 -73.78998 18 ft 16 kts 107°
2026-05-09 18:42 40.65138 -73.78856 18 ft 17 kts 90°
2026-05-09 18:42 40.65167 -73.78704 20 ft 18 kts 64°
2026-05-09 18:42 40.65222 -73.78575 20 ft 16 kts 61°
2026-05-09 18:42 40.65275 -73.78432 18 ft 17 kts 83°
2026-05-09 18:43 40.65229 -73.78302 18 ft 15 kts 117°
2026-05-09 18:43 40.65176 -73.78180 18 ft 15 kts 121°
2026-05-09 18:43 40.65121 -73.78059 18 ft 16 kts 121°
2026-05-09 18:43 40.65065 -73.77937 18 ft 16 kts 121°
2026-05-09 18:44 40.65014 -73.77824 18 ft 13 kts 121°
2026-05-09 18:44 40.64966 -73.77719 18 ft 14 kts 121°
2026-05-09 18:44 40.64916 -73.77609 18 ft 14 kts 121°
2026-05-09 18:44 40.64863 -73.77494 18 ft 15 kts 120°
2026-05-09 18:45 40.64813 -73.77381 18 ft 14 kts 121°
2026-05-09 18:45 40.64762 -73.77269 18 ft 15 kts 121°
2026-05-09 18:45 40.64708 -73.77152 18 ft 14 kts 127°
2026-05-09 18:45 40.64622 -73.77090 18 ft 15 kts 177°
2026-05-09 18:46 40.64572 -73.77036 20 ft 10 kts 95°
2026-05-09 18:46 40.64580 -73.76943 18 ft 11 kts 60°
2026-05-09 18:46 40.64644 -73.76882 20 ft 13 kts 31°
2026-05-09 18:46 40.64710 -73.76830 20 ft 11 kts 31°
2026-05-09 18:47 40.64777 -73.76778 22 ft 11 kts 30°
2026-05-09 18:47 40.64853 -73.76720 19 ft 15 kts 30°
2026-05-09 18:47 40.64950 -73.76643 18 ft 17 kts 31°
2026-05-09 18:47 40.65047 -73.76567 18 ft 11 kts 31°
2026-05-09 18:48 40.65099 -73.76504 18 ft 9 kts 74°
2026-05-09 18:48 40.65077 -73.76421 18 ft 11 kts 121°
2026-05-09 18:48 40.65023 -73.76359 19 ft 10 kts 186°
2026-05-09 18:48 40.64958 -73.76405 18 ft 14 kts 210°
2026-05-09 18:49 40.64675 -73.76625 21 ft 89 kts 210°
2026-05-09 18:49 40.63914 -73.77221 24 ft 161 kts 210°
2026-05-09 18:49 40.62835 -73.78085 418 ft 189 kts 212°
2026-05-09 18:49 40.61681 -73.78995 1388 ft 203 kts 212°
2026-05-09 18:50 40.60433 -73.79977 2110 ft 202 kts 213°
2026-05-09 18:50 40.59236 -73.80941 2865 ft 205 kts 213°
2026-05-09 18:50 40.58023 -73.81895 3926 ft 195 kts 213°
2026-05-09 18:50 40.56782 -73.82671 4842 ft 212 kts 194°
2026-05-09 18:51 40.55234 -73.82398 5608 ft 236 kts 162°
2026-05-09 18:51 40.53831 -73.81088 6472 ft 262 kts 141°
2026-05-09 18:51 40.52556 -73.79274 7221 ft 275 kts 140°
2026-05-09 18:51 40.51238 -73.77429 8215 ft 279 kts 141°
2026-05-09 18:52 40.49887 -73.75557 9145 ft 286 kts 141°
2026-05-09 18:52 40.48502 -73.73649 10083 ft 291 kts 141°
2026-05-09 18:52 40.47073 -73.71689 10743 ft 306 kts 141°
2026-05-09 18:52 40.45543 -73.69612 11210 ft 326 kts 141°
2026-05-09 18:53 40.43919 -73.67408 11670 ft 345 kts 140°
2026-05-09 18:53 40.42222 -73.65098 11888 ft 355 kts 140°
2026-05-09 18:53 40.40509 -73.62756 11972 ft 356 kts 140°
2026-05-09 18:53 40.38797 -73.60410 11995 ft 356 kts 140°
2026-05-09 18:54 40.37082 -73.58060 12038 ft 356 kts 140°
2026-05-09 18:54 40.35365 -73.55709 12396 ft 357 kts 140°
2026-05-09 18:54 40.33639 -73.53344 13300 ft 362 kts 140°
2026-05-09 18:54 40.31879 -73.50936 14012 ft 370 kts 140°
2026-05-09 18:55 40.30085 -73.48482 14686 ft 375 kts 140°
2026-05-09 18:55 40.28267 -73.45997 15343 ft 380 kts 140°
2026-05-09 18:55 40.26426 -73.43484 15998 ft 385 kts 140°
2026-05-09 18:55 40.24559 -73.40938 16646 ft 390 kts 140°
2026-05-09 18:56 40.22577 -73.38529 17254 ft 388 kts 150°
2026-05-09 18:56 40.20360 -73.36500 17858 ft 392 kts 150°
2026-05-09 18:56 40.18121 -73.34419 18452 ft 396 kts 150°
2026-05-09 18:56 40.15873 -73.32319 19050 ft 398 kts 150°
2026-05-09 18:57 40.13635 -73.30253 19642 ft 398 kts 153°
2026-05-09 18:57 40.11143 -73.28826 20186 ft 388 kts 172°
2026-05-09 18:57 40.09131 -73.28503 20576 ft 381 kts 186°
2026-05-09 18:58 40.08762 -73.28516 20646 ft 380 kts 189°
2026-05-09 18:58 40.06221 -73.29262 21124 ft 373 kts 207°
2026-05-09 18:58 40.04055 -73.31063 21631 ft 369 kts 225°
2026-05-09 18:58 40.02300 -73.33506 22130 ft 371 kts 227°
2026-05-09 18:59 40.00429 -73.35851 22655 ft 375 kts 225°
2026-05-09 18:59 39.98496 -73.38147 23214 ft 377 kts 224°
2026-05-09 18:59 39.96524 -73.40420 23698 ft 380 kts 224°
2026-05-09 18:59 39.94526 -73.42690 24148 ft 382 kts 224°
2026-05-09 19:00 39.92511 -73.44957 24609 ft 383 kts 224°
2026-05-09 19:00 39.88450 -73.49492 25498 ft 386 kts 224°
2026-05-09 19:00 39.86402 -73.51772 25936 ft 388 kts 224°
2026-05-09 19:01 39.84349 -73.54058 26360 ft 389 kts 224°
2026-05-09 19:01 39.82285 -73.56357 26756 ft 391 kts 224°
2026-05-09 19:01 39.80218 -73.58659 27157 ft 393 kts 224°
2026-05-09 19:01 39.78131 -73.60981 27546 ft 395 kts 224°
2026-05-09 19:02 39.76033 -73.63314 27921 ft 397 kts 224°
2026-05-09 19:02 39.73926 -73.65655 28297 ft 399 kts 224°
2026-05-09 19:02 39.71836 -73.67974 28651 ft 402 kts 224°
2026-05-09 19:02 39.69706 -73.70336 28997 ft 404 kts 224°
2026-05-09 19:03 39.67562 -73.72712 29333 ft 406 kts 224°
2026-05-09 19:03 39.65406 -73.75099 29671 ft 409 kts 224°
2026-05-09 19:03 39.63238 -73.77497 29983 ft 411 kts 224°
2026-05-09 19:03 39.61061 -73.79905 30317 ft 412 kts 225°
2026-05-09 19:04 39.58885 -73.82309 30756 ft 410 kts 225°
2026-05-09 19:04 39.56715 -73.84703 31183 ft 408 kts 226°
2026-05-09 19:04 39.54560 -73.87079 31638 ft 405 kts 227°
2026-05-09 19:04 39.52420 -73.89435 32101 ft 402 kts 227°
2026-05-09 19:05 39.50296 -73.91773 32571 ft 399 kts 228°
2026-05-09 19:05 39.48186 -73.94094 33033 ft 397 kts 229°
2026-05-09 19:05 39.46088 -73.96398 33482 ft 394 kts 229°
2026-05-09 19:05 39.44007 -73.98683 33954 ft 391 kts 230°
2026-05-09 19:06 39.41943 -74.00946 34305 ft 389 kts 229°
2026-05-09 19:06 39.39873 -74.03211 34564 ft 390 kts 229°
2026-05-09 19:06 39.37805 -74.05473 34803 ft 390 kts 229°
2026-05-09 19:06 39.35725 -74.07747 35057 ft 391 kts 229°
2026-05-09 19:07 39.33647 -74.10016 35308 ft 391 kts 229°
2026-05-09 19:07 39.31570 -74.12283 35544 ft 392 kts 229°
2026-05-09 19:07 39.29483 -74.14558 35781 ft 392 kts 229°
2026-05-09 19:07 39.27397 -74.16831 36020 ft 393 kts 229°
2026-05-09 19:08 39.25309 -74.19104 36231 ft 393 kts 229°
2026-05-09 19:08 39.23217 -74.21380 36473 ft 393 kts 229°
2026-05-09 19:08 39.21123 -74.23656 36690 ft 394 kts 229°
2026-05-09 19:08 39.19029 -74.25930 36908 ft 394 kts 229°
2026-05-09 19:09 39.16932 -74.28206 37130 ft 394 kts 229°
2026-05-09 19:09 39.14832 -74.30482 37345 ft 394 kts 229°
2026-05-09 19:09 39.12734 -74.32755 37550 ft 394 kts 229°
2026-05-09 19:09 39.10635 -74.35027 37755 ft 394 kts 229°
2026-05-09 19:10 39.08534 -74.37300 37924 ft 395 kts 229°
2026-05-09 19:10 39.06428 -74.39576 37962 ft 396 kts 229°
2026-05-09 19:10 39.02214 -74.44124 37952 ft 395 kts 229°
2026-05-09 19:11 38.98034 -74.48630 37946 ft 395 kts 229°
2026-05-09 19:11 38.93848 -74.53186 37946 ft 392 kts 231°
2026-05-09 19:12 38.89812 -74.57895 37949 ft 392 kts 231°
2026-05-09 19:12 38.85785 -74.62608 37946 ft 391 kts 231°
2026-05-09 19:13 38.81760 -74.67312 37942 ft 391 kts 231°
2026-05-09 19:13 38.77742 -74.72001 37947 ft 391 kts 231°
2026-05-09 19:14 38.73634 -74.76591 37956 ft 393 kts 229°
2026-05-09 19:14 38.69402 -74.81022 37950 ft 393 kts 229°
2026-05-09 19:15 38.65163 -74.85440 37958 ft 393 kts 229°
2026-05-09 19:15 38.60926 -74.89847 37952 ft 392 kts 229°
2026-05-09 19:16 38.56698 -74.94238 37937 ft 392 kts 229°
2026-05-09 19:16 38.52491 -74.98660 37939 ft 389 kts 230°
2026-05-09 19:17 38.48412 -75.03199 37932 ft 389 kts 231°
2026-05-09 19:17 38.44135 -75.07520 37940 ft 394 kts 227°
2026-05-09 19:18 38.39751 -75.11700 37931 ft 393 kts 227°
2026-05-09 19:18 38.35371 -75.15862 37928 ft 392 kts 227°
2026-05-09 19:19 38.31025 -75.19986 37929 ft 392 kts 227°
2026-05-09 19:19 38.26653 -75.24128 37927 ft 391 kts 227°
2026-05-09 19:20 38.22287 -75.28257 37934 ft 391 kts 227°
2026-05-09 19:20 38.17921 -75.32379 37934 ft 391 kts 227°
2026-05-09 19:21 38.13557 -75.36498 37935 ft 390 kts 227°
2026-05-09 19:21 38.09195 -75.40605 37933 ft 390 kts 227°
2026-05-09 19:22 38.04814 -75.44676 37930 ft 392 kts 226°
2026-05-09 19:22 38.00326 -75.48609 37928 ft 392 kts 225°
2026-05-09 19:23 37.95832 -75.52530 37933 ft 392 kts 225°
2026-05-09 19:23 37.91347 -75.56436 37928 ft 391 kts 226°
2026-05-09 19:24 37.86865 -75.60332 37935 ft 391 kts 225°
2026-05-09 19:24 37.84412 -75.61966 37914 ft 411 kts 211°
2026-05-09 19:24 37.81526 -75.62663 37930 ft 439 kts 194°
2026-05-09 19:25 37.78395 -75.62336 37936 ft 460 kts 184°
2026-05-09 19:25 37.75237 -75.61834 37914 ft 456 kts 187°
2026-05-09 19:25 37.68938 -75.61160 37914 ft 443 kts 196°
2026-05-09 19:26 37.65991 -75.61668 37935 ft 421 kts 205°
2026-05-09 19:26 37.63075 -75.62306 37927 ft 428 kts 202°
2026-05-09 19:26 37.57200 -75.63506 37912 ft 427 kts 203°
2026-05-09 19:27 37.51343 -75.64757 37921 ft 426 kts 203°
2026-05-09 19:27 37.45501 -75.66016 37917 ft 426 kts 204°
2026-05-09 19:28 37.39704 -75.67263 37919 ft 425 kts 204°
2026-05-09 19:28 37.33887 -75.68514 37920 ft 423 kts 204°
2026-05-09 19:29 37.29025 -75.69557 37921 ft 423 kts 204°
2026-05-09 19:29 37.23226 -75.70800 37920 ft 422 kts 204°
2026-05-09 19:30 37.17438 -75.72039 37918 ft 422 kts 204°
2026-05-09 19:30 37.11657 -75.73274 37915 ft 421 kts 204°
2026-05-09 19:31 37.05950 -75.74666 37901 ft 402 kts 215°
2026-05-09 19:31 37.03551 -75.76204 37922 ft 381 kts 224°
2026-05-09 19:31 37.01200 -75.77823 37919 ft 388 kts 221°
2026-05-09 19:32 36.96444 -75.81031 37903 ft 387 kts 222°
2026-05-09 19:32 36.91768 -75.84250 37902 ft 386 kts 222°
2026-05-09 19:33 36.87066 -75.87502 37903 ft 386 kts 222°
2026-05-09 19:33 36.82374 -75.90746 37906 ft 385 kts 222°
2026-05-09 19:34 36.77694 -75.93977 37905 ft 384 kts 222°
2026-05-09 19:34 36.73015 -75.97204 37906 ft 384 kts 223°
2026-05-09 19:35 36.68349 -76.00416 37920 ft 383 kts 223°
2026-05-09 19:35 36.63685 -76.03623 37920 ft 382 kts 223°
2026-05-09 19:36 36.59027 -76.06821 37918 ft 382 kts 223°
2026-05-09 19:36 36.54381 -76.10006 37917 ft 381 kts 223°
2026-05-09 19:37 36.49738 -76.13185 37923 ft 381 kts 223°
2026-05-09 19:37 36.45102 -76.16355 37925 ft 380 kts 223°
2026-05-09 19:38 36.40474 -76.19515 37922 ft 379 kts 223°
2026-05-09 19:38 36.35857 -76.22664 37925 ft 378 kts 223°
2026-05-09 19:39 36.31253 -76.25798 37927 ft 377 kts 223°
2026-05-09 19:39 36.26651 -76.28928 37927 ft 376 kts 223°
2026-05-09 19:40 36.22060 -76.32046 37924 ft 376 kts 223°
2026-05-09 19:40 36.17468 -76.35160 37927 ft 376 kts 223°
2026-05-09 19:41 36.12879 -76.38268 37923 ft 376 kts 223°
2026-05-09 19:41 36.08316 -76.41354 37933 ft 376 kts 223°
2026-05-09 19:42 36.03728 -76.44453 37939 ft 376 kts 223°
2026-05-09 19:42 35.99142 -76.47547 37934 ft 375 kts 224°
2026-05-09 19:43 35.94560 -76.50635 37946 ft 375 kts 224°
2026-05-09 19:43 35.89972 -76.53714 37934 ft 377 kts 222°
2026-05-09 19:44 35.85284 -76.56636 37930 ft 378 kts 222°
2026-05-09 19:44 35.80581 -76.59541 37926 ft 377 kts 222°
2026-05-09 19:45 35.75889 -76.62435 37928 ft 377 kts 222°
2026-05-09 19:45 35.71202 -76.65323 37927 ft 377 kts 222°
2026-05-09 19:46 35.66521 -76.68202 37926 ft 376 kts 222°
2026-05-09 19:46 35.61847 -76.71073 37928 ft 375 kts 222°
2026-05-09 19:47 35.57175 -76.73940 37932 ft 375 kts 222°
2026-05-09 19:47 35.52513 -76.76796 37935 ft 374 kts 222°
2026-05-09 19:48 35.47853 -76.79647 37922 ft 374 kts 222°
2026-05-09 19:48 35.43190 -76.82498 37927 ft 375 kts 222°
2026-05-09 19:49 35.38552 -76.85329 37929 ft 375 kts 222°
2026-05-09 19:49 35.33883 -76.88175 37934 ft 375 kts 222°
2026-05-09 19:50 35.29208 -76.91021 37937 ft 375 kts 222°
2026-05-09 19:50 35.24548 -76.93858 37940 ft 374 kts 222°
2026-05-09 19:51 35.19912 -76.96757 37945 ft 374 kts 222°
2026-05-09 19:51 35.15272 -76.99666 37950 ft 375 kts 222°
2026-05-09 19:52 35.10619 -77.02579 37948 ft 376 kts 222°
2026-05-09 19:52 35.05956 -77.05494 37950 ft 377 kts 221°
2026-05-09 19:53 35.01285 -77.08412 37947 ft 378 kts 221°
2026-05-09 19:53 34.96589 -77.11341 37955 ft 380 kts 221°
2026-05-09 19:54 34.91875 -77.14277 37950 ft 382 kts 221°
2026-05-09 19:54 34.87133 -77.17228 37954 ft 384 kts 221°
2026-05-09 19:55 34.82366 -77.20189 37957 ft 385 kts 221°
2026-05-09 19:56 34.75173 -77.24651 37946 ft 388 kts 220°
2026-05-09 19:56 34.70352 -77.27637 37953 ft 389 kts 220°
2026-05-09 19:57 34.65510 -77.30632 37953 ft 391 kts 220°
2026-05-09 19:57 34.60640 -77.33639 37945 ft 394 kts 220°
2026-05-09 19:58 34.55746 -77.36657 37952 ft 396 kts 220°
2026-05-09 19:58 34.50828 -77.39688 37954 ft 398 kts 220°
2026-05-09 19:58 34.48263 -77.41051 37931 ft 415 kts 210°
2026-05-09 19:59 34.45389 -77.41696 37971 ft 431 kts 203°
2026-05-09 19:59 34.39451 -77.42844 37964 ft 433 kts 204°
2026-05-09 20:00 34.33482 -77.44012 37958 ft 436 kts 204°
2026-05-09 20:00 34.27490 -77.45183 37956 ft 438 kts 204°
2026-05-09 20:01 34.21453 -77.46361 37949 ft 441 kts 203°
2026-05-09 20:01 34.15377 -77.47544 37952 ft 442 kts 203°
2026-05-09 20:02 34.09305 -77.48726 37950 ft 442 kts 204°
2026-05-09 20:02 34.03237 -77.49905 37952 ft 442 kts 204°
2026-05-09 20:03 33.94128 -77.51671 37957 ft 442 kts 204°
2026-05-09 20:03 33.88062 -77.52845 37944 ft 441 kts 204°
2026-05-09 20:04 33.82001 -77.54017 37955 ft 441 kts 204°
2026-05-09 20:04 33.75951 -77.55185 37952 ft 440 kts 204°
2026-05-09 20:05 33.69913 -77.56348 37957 ft 439 kts 204°